Theta_e
341 343 357 360 360 361 362 362 361 361 360 359 360 360 359 358 358 361 362 361 362 361 362 363 363 363 363 363 362 363 363 361 361 360 359 359 359 359 359 359 358 352 358
343 349 359 362 361 361 362 361 362 361 359 359 362 359 358 358 357 357 359 361 360 361 361 362 362 363 362 362 362 362 362 361 362 361 360 361 359 357 357 358 358 353 355
342 353 358 363 362 362 363 360 362 361 359 361 360 359 360 359 356 357 357 358 360 360 360 360 361 362 362 360 359 361 361 362 362 361 360 352 352 356 357 354 355 355 357
346 354 357 363 363 363 364 362 362 360 360 360 361 359 360 359 356 357 357 357 357 360 357 359 360 362 360 358 359 358 360 360 360 358 350 350 350 358 357 356 356 357 357
351 353 356 362 364 363 363 363 362 361 360 360 360 360 360 359 356 355 356 359 358 357 359 359 360 359 358 358 358 358 359 360 358 353 349 348 348 355 355 354 356 357 352
350 352 360 361 360 362 363 363 362 360 361 360 359 359 359 359 359 355 357 359 358 359 359 359 357 357 358 357 357 359 359 359 357 352 351 353 349 356 354 358 356 355 353
348 353 356 364 363 363 362 362 362 362 361 360 360 360 359 359 358 359 357 358 358 357 356 356 356 356 356 357 358 359 360 359 351 350 350 349 349 358 354 357 355 355 357
352 355 358 363 362 364 364 363 362 362 362 360 361 360 360 360 359 358 358 358 358 358 357 356 355 355 357 358 363 361 360 358 352 350 350 348 354 354 357 355 351 349 352
354 354 356 357 360 362 362 362 362 362 362 362 360 359 360 359 359 359 359 359 358 357 357 356 356 357 357 358 361 360 359 357 348 350 351 348 357 353 352 350 353 352 351
351 353 353 353 353 352 356 363 362 362 363 362 362 361 360 359 358 359 361 361 358 357 357 356 357 356 358 361 361 359 358 357 348 351 351 350 357 357 356 357 356 356 355
350 349 349 349 348 350 352 358 362 363 363 362 360 361 359 353 353 353 356 359 358 358 358 357 357 358 360 358 361 360 357 349 349 350 350 355 358 358 358 357 355 354 354
346 348 347 347 349 351 356 353 354 356 355 354 354 349 347 350 352 354 356 359 358 358 359 356 357 347 348 345 348 356 346 347 348 349 350 358 360 356 356 354 357 353 350
346 348 346 347 349 350 352 351 352 352 352 351 350 342 345 349 349 351 351 351 349 355 346 341 344 343 343 346 346 346 344 346 347 349 354 359 359 356 356 357 353 351 351
344 346 344 347 348 346 350 349 350 351 351 350 346 342 346 340 343 344 346 347 347 346 340 338 341 344 344 344 346 344 343 345 344 347 353 359 359 356 355 356 355 355 353
341 344 343 345 346 345 347 348 348 348 349 349 347 346 348 340 341 344 345 344 344 344 342 341 342 343 344 346 346 344 341 344 346 348 348 356 359 358 355 355 355 353 352
342 342 342 344 346 346 347 347 347 347 350 348 348 348 346 344 343 343 344 343 343 342 341 343 342 342 344 346 342 341 342 344 346 348 347 349 357 358 356 354 354 355 353
340 342 341 344 346 345 346 348 347 347 350 347 346 344 348 345 344 338 343 343 342 338 341 343 341 342 342 343 338 341 342 343 344 346 347 348 351 357 357 354 353 354 353
339 340 341 347 346 344 345 347 347 347 347 347 346 346 348 349 345 342 342 342 343 339 340 342 339 338 337 336 336 338 340 341 342 343 347 347 348 350 354 357 356 354 352
339 341 342 343 344 344 345 346 345 348 348 348 349 347 345 347 350 346 344 342 344 341 339 342 341 338 336 335 335 337 340 339 340 343 343 346 346 348 346 352 358 358 355
342 342 342 343 343 345 344 345 346 346 348 349 347 346 341 349 353 349 348 344 345 341 341 341 337 336 337 335 338 335 337 338 338 339 340 344 344 346 346 347 348 353 359
341 341 342 342 341 344 340 341 341 341 345 346 347 349 351 350 351 349 347 346 347 343 343 342 339 335 338 335 330 331 333 335 336 336 340 340 341 344 344 344 344 347 349
340 341 343 343 341 344 341 340 344 341 344 344 346 348 352 352 351 350 348 346 342 341 342 342 339 337 338 335 329 329 323 325 327 333 335 339 340 343 344 344 343 343 345
339 339 342 342 341 343 342 341 343 342 344 342 345 346 350 354 351 350 349 344 341 343 339 340 342 338 332 336 334 330 321 320 324 329 331 333 335 335 341 344 344 344 343
339 340 342 341 340 342 342 340 340 340 337 341 344 346 350 353 351 348 350 349 346 345 343 343 344 338 336 333 335 332 333 330 322 322 328 332 333 333 334 339 343 345 345
339 339 341 341 340 341 342 341 340 339 339 342 343 344 347 350 351 351 349 348 347 347 344 346 345 343 341 337 336 329 330 332 329 325 322 327 333 336 335 335 338 340 341
339 340 341 341 340 341 341 339 339 339 339 340 341 342 344 347 348 349 349 349 348 345 346 346 346 343 344 344 342 335 329 329 328 328 325 326 329 333 335 336 336 336 339
Wind_Speed
5 6 8 11 12 13 14 14 16 15 14 13 13 13 12 10 10 10 11 10 11 11 11 12 12 13 13 13 14 14 15 15 15 15 14 14 14 14 14 14 14 10 15
8 6 10 11 12 12 13 13 14 14 13 13 12 12 12 11 10 10 9 9 9 10 11 12 12 12 12 13 13 13 14 14 16 15 14 14 14 14 13 13 14 13 14
10 6 6 10 11 12 13 12 14 14 12 11 12 12 12 13 11 10 10 9 10 9 9 11 11 10 11 11 13 13 13 13 15 14 13 5 6 12 13 13 14 13 14
9 5 5 10 12 14 14 14 14 13 11 10 12 11 11 11 11 10 11 10 10 10 9 10 10 11 11 11 12 12 12 13 14 13 4 3 9 14 12 13 13 13 14
7 5 7 12 12 14 15 14 13 13 11 11 12 11 11 11 11 10 11 11 11 11 10 10 11 10 11 10 10 8 11 12 13 9 6 6 5 11 13 11 12 13 13
7 6 10 13 13 13 13 13 13 12 12 11 12 10 11 11 10 12 10 10 12 11 10 11 10 9 9 8 7 8 13 14 12 6 5 7 6 12 11 11 12 11 12
7 5 7 12 13 13 13 12 13 13 12 12 11 11 12 12 10 12 11 11 11 10 10 9 8 9 8 7 4 11 14 13 5 6 5 5 6 11 11 11 12 9 12
9 5 6 11 12 12 12 13 13 13 13 12 11 11 11 12 11 10 10 11 11 10 9 8 7 9 9 9 12 13 13 13 7 5 5 5 8 10 11 11 11 10 10
8 6 5 5 9 12 12 13 13 12 11 12 11 9 10 10 11 12 10 11 11 10 10 9 9 10 8 10 10 12 12 12 5 3 5 3 9 11 11 10 10 9 9
5 6 5 4 5 4 4 13 13 12 12 11 10 10 10 9 10 9 8 10 10 10 10 9 10 8 9 9 9 10 12 12 4 4 3 3 8 10 10 9 8 8 7
6 5 5 5 5 4 3 7 10 11 11 11 10 9 6 2 4 6 6 10 11 11 10 10 9 8 9 8 10 12 10 2 3 3 2 8 7 9 9 9 9 8 5
10 6 5 6 5 5 4 4 3 4 3 3 3 5 2 2 2 4 7 9 9 10 11 10 11 8 6 3 3 8 3 4 3 3 1 7 8 8 8 8 8 7 6
10 8 6 6 5 5 4 3 2 2 2 3 5 4 3 3 2 2 2 2 3 8 4 6 4 3 4 2 3 2 4 4 2 2 2 5 7 7 7 7 7 6 5
10 8 7 6 5 4 3 3 3 3 2 3 3 5 3 2 3 1 2 1 3 3 5 4 2 1 2 1 1 3 4 4 3 2 4 7 7 8 8 7 7 6 5
8 7 7 6 5 4 4 3 3 3 3 3 3 4 3 4 3 3 3 2 1 2 2 3 2 1 0 2 2 5 5 5 5 3 2 9 7 8 8 8 7 6 6
9 8 8 8 6 6 5 5 4 3 3 3 3 3 5 4 4 3 4 2 1 1 0 2 0 1 1 2 3 5 6 5 5 4 3 4 10 9 8 8 7 7 7
11 9 9 8 6 7 7 6 4 4 4 4 4 4 5 5 5 5 4 3 2 0 3 3 2 2 3 1 1 3 3 4 3 3 3 3 3 9 9 9 9 9 8
11 12 9 9 9 7 6 5 4 4 4 4 3 3 5 5 6 4 2 3 4 3 3 2 2 3 2 2 2 2 3 3 4 5 4 3 3 3 7 10 9 10 10
13 12 11 8 9 7 6 5 6 6 4 4 4 3 5 5 4 5 4 3 3 3 1 1 0 2 0 2 1 3 4 4 4 4 5 5 5 4 3 8 10 11 13
14 13 14 9 8 7 4 4 3 3 2 3 4 4 5 3 3 4 4 5 4 3 3 2 3 2 1 3 2 0 2 3 3 4 4 4 4 5 5 5 4 5 12
14 14 14 12 8 5 2 3 2 3 2 1 3 4 5 3 5 6 3 3 4 4 4 4 1 2 1 1 2 2 2 3 4 4 4 4 5 6 5 5 4 4 4
19 17 14 15 12 8 4 3 3 3 1 0 1 3 5 4 3 5 5 4 4 3 4 4 3 1 0 1 2 2 3 4 3 4 4 5 6 4 6 6 6 6 5
18 17 15 15 14 8 7 4 3 4 3 2 1 3 3 5 4 5 6 5 5 3 4 3 3 3 2 1 2 3 1 3 2 2 3 4 5 4 5 5 6 6 6
20 18 16 15 14 10 9 6 6 4 4 3 4 3 3 4 5 5 5 5 5 3 4 3 3 2 2 1 1 1 1 3 2 3 2 3 3 5 6 4 5 6 6
18 17 15 14 13 8 11 9 7 4 3 2 2 5 3 3 4 5 5 5 5 4 3 4 4 3 2 2 2 0 2 1 2 2 2 4 3 4 5 5 5 5 5
16 15 15 15 14 10 11 9 11 9 6 3 2 4 3 3 3 4 5 5 5 4 5 4 4 4 3 2 2 2 2 2 1 1 1 2 2 4 2 3 4 3 4
Wind_Direction
182 169 161 150 140 129 124 127 128 126 122 121 118 113 111 105 97 93 95 103 106 103 98 96 100 102 98 105 103 100 95 101 103 104 102 99 100 99 99 102 102 100 97
137 161 162 150 148 141 134 128 125 121 121 125 123 115 113 108 107 107 106 107 107 105 104 100 98 98 100 101 102 104 99 100 105 105 108 107 104 97 101 100 106 92 100
138 157 154 142 140 143 137 129 123 124 128 130 128 122 127 121 117 117 120 115 114 116 106 100 93 93 94 97 102 103 105 102 100 101 101 84 93 112 99 96 97 105 101
140 150 146 139 131 137 142 137 133 131 134 133 127 124 119 121 121 125 118 119 126 121 119 111 106 93 93 101 101 103 106 109 109 102 72 102 93 104 98 99 104 98 98
130 139 153 137 131 139 145 144 138 137 137 132 126 123 125 125 125 122 120 117 125 117 115 108 100 100 105 104 100 112 133 118 113 93 75 72 72 107 98 102 94 102 99
128 135 147 143 143 146 146 140 139 141 139 135 130 129 129 127 131 121 120 116 120 116 104 109 112 113 110 104 103 102 138 126 116 90 83 93 103 110 114 116 102 98 106
125 140 137 151 154 156 154 154 151 142 136 138 141 135 129 124 119 120 123 117 111 111 110 108 114 108 93 74 146 126 128 122 96 88 88 93 88 104 118 111 107 97 107
132 134 156 152 152 148 141 138 142 144 145 140 144 140 123 122 129 126 129 120 115 111 106 105 102 101 88 75 97 120 116 121 106 98 102 101 110 116 100 97 103 104 102
134 124 118 135 155 147 148 142 145 147 151 148 136 133 133 138 138 135 128 119 115 109 107 103 99 97 86 85 114 117 113 120 94 97 107 106 124 121 121 120 118 115 112
118 112 123 105 103 106 134 146 146 148 147 146 142 145 142 148 148 141 128 128 119 114 109 109 108 116 104 89 110 116 122 128 116 102 97 122 130 129 135 138 125 127 133
130 129 134 130 132 149 153 153 144 154 150 152 150 159 130 115 126 130 154 139 131 119 107 110 120 110 101 95 109 129 122 114 104 95 104 146 133 130 129 133 124 117 123
160 162 154 146 161 175 158 107 144 166 129 111 106 102 141 130 141 168 160 144 128 115 94 75 85 62 69 49 38 126 127 123 115 120 155 154 150 140 141 141 135 136 131
166 168 168 164 176 178 138 141 166 112 128 138 165 153 176 107 53 45 357 85 85 102 78 71 75 89 74 44 62 113 131 126 129 146 174 157 148 159 149 153 149 154 156
171 182 169 170 177 184 143 150 179 150 177 192 178 150 143 121 129 135 135 174 121 122 112 99 98 104 82 252 262 140 148 140 154 175 196 175 170 168 173 173 175 184 181
169 181 171 169 177 179 170 156 178 152 195 217 193 177 163 151 152 156 152 179 135 107 122 117 106 155 183 311 298 179 161 161 174 185 190 182 185 186 190 192 194 199 205
174 180 164 182 175 176 180 180 178 171 213 218 218 209 196 157 154 196 165 192 232 145 134 89 132 252 58 1 351 148 155 169 182 186 189 201 196 202 202 211 213 218 226
183 174 171 177 173 186 185 193 181 185 191 215 218 202 192 174 176 165 177 182 171 146 85 72 51 34 28 39 75 132 149 173 194 190 214 214 222 213 218 224 227 229 236
175 177 166 183 184 190 196 200 195 185 176 201 201 207 200 202 172 156 192 182 173 149 77 79 78 43 339 34 76 190 176 190 198 204 218 210 222 230 235 235 238 242 243
181 175 164 173 190 184 203 200 189 184 173 178 169 205 219 226 185 156 173 191 188 120 117 6 54 140 134 308 252 207 207 208 221 211 220 219 222 230 236 251 246 247 251
180 180 164 169 183 175 162 108 101 125 143 175 177 194 202 220 215 171 156 165 151 140 194 176 207 204 151 186 259 215 222 236 213 234 238 231 222 229 235 240 253 255 254
181 177 169 159 179 161 152 107 88 166 139 193 205 190 192 184 168 154 147 145 158 172 204 175 153 151 281 165 56 2 311 224 239 235 224 235 236 230 234 232 235 247 257
181 180 172 175 174 178 154 144 142 140 174 114 217 215 197 167 176 148 152 156 169 147 159 172 148 143 198 179 124 82 352 330 312 257 236 233 239 229 239 237 234 240 244
180 177 175 177 178 181 159 124 88 76 62 62 333 266 225 185 184 165 165 158 166 159 158 173 146 139 176 238 186 141 81 240 322 310 271 248 255 233 247 243 240 236 237
187 181 180 177 180 182 161 152 145 156 155 194 192 213 224 202 188 193 172 166 161 165 163 161 154 156 130 197 60 46 177 158 161 341 327 291 259 244 248 252 251 240 232
183 182 182 180 181 173 174 165 162 151 168 183 195 189 213 220 201 204 184 170 171 170 176 175 163 178 165 139 121 344 56 44 84 119 298 321 313 253 248 236 240 240 242
186 188 178 180 189 175 175 167 174 174 174 181 201 191 204 216 213 218 199 178 182 171 174 191 181 178 169 145 133 175 172 149 188 140 41 273 255 295 289 270 265 272 265